Time,TemperatureF,DewpointF,PressureIn,WindDirection,WindDirectionDegrees,WindSpeedMPH,WindSpeedGustMPH,Humidity,HourlyPrecipIn,Conditions,Clouds,dailyrainin,SoftwareType,DateUTC
2013-07-11 00:01:00,64.0,64.0,-100.00,South,190,3.0,4.0,99,-99.99,,,-99.99,,2013-07-11 05:01:00,
2013-07-11 00:11:00,62.0,62.0,-100.00,South,185,2.0,2.0,99,-99.99,,,-99.99,,2013-07-11 05:11:00,
2013-07-11 00:32:00,62.0,62.0,-100.00,South,185,2.0,2.0,99,-99.99,,,-99.99,,2013-07-11 05:32:00,
2013-07-11 00:43:00,62.0,62.0,-100.00,South,185,2.0,2.0,99,-99.99,,,-99.99,,2013-07-11 05:43:00,
2013-07-11 00:52:00,62.0,62.0,-100.00,South,185,2.0,2.0,99,-99.99,,,-99.99,,2013-07-11 05:52:00,
2013-07-11 01:01:00,62.0,62.0,-100.00,South,185,2.0,2.0,99,-99.99,,,-99.99,,2013-07-11 06:01:00,
2013-07-11 01:10:00,61.0,61.0,-100.00,South,185,1.0,1.0,99,-99.99,,,-99.99,,2013-07-11 06:10:00,
2013-07-11 01:43:00,61.0,61.0,-100.00,South,185,1.0,1.0,99,-99.99,,,-99.99,,2013-07-11 06:43:00,
2013-07-11 01:53:00,61.0,61.0,-100.00,South,185,1.0,1.0,99,-99.99,,,-99.99,,2013-07-11 06:53:00,
2013-07-11 02:02:00,61.0,61.0,-100.00,South,185,1.0,1.0,99,-99.99,,,-99.99,,2013-07-11 07:02:00,
2013-07-11 02:45:00,61.0,61.0,-100.00,South,185,4.0,4.0,99,-99.99,,,-99.99,,2013-07-11 07:45:00,
2013-07-11 02:53:00,61.0,61.0,-100.00,South,185,4.0,4.0,99,-99.99,,,-99.99,,2013-07-11 07:53:00,
2013-07-11 03:02:00,61.0,61.0,-100.00,South,185,4.0,4.0,99,-99.99,,,-99.99,,2013-07-11 08:02:00,
2013-07-11 03:10:00,60.0,60.0,-100.00,SW,215,2.0,2.0,99,-99.99,,,-99.99,,2013-07-11 08:10:00,
2013-07-11 03:43:00,60.0,60.0,-100.00,SW,215,2.0,2.0,99,-99.99,,,-99.99,,2013-07-11 08:43:00,
2013-07-11 03:53:00,60.0,60.0,-100.00,SW,215,2.0,2.0,99,-99.99,,,-99.99,,2013-07-11 08:53:00,
2013-07-11 04:02:00,60.0,60.0,-100.00,SW,215,2.0,2.0,99,-99.99,,,-99.99,,2013-07-11 09:02:00,
2013-07-11 04:43:00,60.0,60.0,-100.00,SSW,200,3.0,4.0,99,-99.99,,,-99.99,,2013-07-11 09:43:00,
2013-07-11 04:53:00,60.0,60.0,-100.00,SSW,200,3.0,4.0,99,-99.99,,,-99.99,,2013-07-11 09:53:00,
2013-07-11 05:01:00,60.0,60.0,-100.00,SSW,200,3.0,4.0,99,-99.99,,,-99.99,,2013-07-11 10:01:00,
2013-07-11 05:10:00,59.0,59.0,-100.00,SSW,210,3.0,3.0,99,-99.99,,,-99.99,,2013-07-11 10:10:00,
2013-07-11 05:43:00,59.0,59.0,-100.00,SSW,210,3.0,3.0,99,-99.99,,,-99.99,,2013-07-11 10:43:00,
2013-07-11 05:52:00,59.0,59.0,-100.00,SSW,210,3.0,3.0,99,-99.99,,,-99.99,,2013-07-11 10:52:00,
2013-07-11 06:02:00,59.0,59.0,-100.00,SSW,210,3.0,3.0,99,-99.99,,,-99.99,,2013-07-11 11:02:00,
2013-07-11 06:11:00,58.0,57.0,-100.00,SE,145,4.0,4.0,99,-99.99,,,-99.99,,2013-07-11 11:11:00,
2013-07-11 06:43:00,58.0,57.0,-100.00,SE,145,4.0,4.0,99,-99.99,,,-99.99,,2013-07-11 11:43:00,
2013-07-11 06:53:00,58.0,57.0,-100.00,SE,145,4.0,4.0,99,-99.99,,,-99.99,,2013-07-11 11:53:00,
2013-07-11 07:01:00,58.0,57.0,-100.00,SE,145,4.0,4.0,99,-99.99,,,-99.99,,2013-07-11 12:01:00,
2013-07-11 07:10:00,62.0,62.0,-100.00,SSE,165,6.0,7.0,99,-99.99,,,-99.99,,2013-07-11 12:10:00,
2013-07-11 07:33:00,62.0,62.0,-100.00,SSE,165,6.0,7.0,99,-99.99,,,-99.99,,2013-07-11 12:33:00,
2013-07-11 07:43:00,62.0,62.0,-100.00,SSE,165,6.0,7.0,99,-99.99,,,-99.99,,2013-07-11 12:43:00,
2013-07-11 07:57:00,62.0,62.0,-100.00,SSE,165,6.0,7.0,99,-99.99,,,-99.99,,2013-07-11 12:57:00,
2013-07-11 08:10:00,67.0,64.0,-100.00,South,170,10.0,13.0,89,-99.99,,,-99.99,,2013-07-11 13:10:00,
2013-07-11 08:47:00,67.0,64.0,-100.00,South,170,10.0,13.0,89,-99.99,,,-99.99,,2013-07-11 13:47:00,
2013-07-11 08:54:00,67.0,64.0,-100.00,South,170,10.0,13.0,89,-99.99,,,-99.99,,2013-07-11 13:54:00,
2013-07-11 09:04:00,67.0,64.0,-100.00,South,170,10.0,13.0,89,-99.99,,,-99.99,,2013-07-11 14:04:00,
2013-07-11 09:55:00,72.0,64.0,-100.00,South,175,11.0,13.0,77,-99.99,,,-99.99,,2013-07-11 14:55:00,
2013-07-11 10:04:00,72.0,64.0,-100.00,South,175,11.0,13.0,77,-99.99,,,-99.99,,2013-07-11 15:04:00,
2013-07-11 10:10:00,74.0,64.0,-100.00,SSE,155,13.0,17.0,71,-99.99,,,-99.99,,2013-07-11 15:10:00,
2013-07-11 10:48:00,74.0,64.0,-100.00,SSE,155,13.0,17.0,71,-99.99,,,-99.99,,2013-07-11 15:48:00,
2013-07-11 10:58:00,74.0,64.0,-100.00,SSE,155,13.0,17.0,71,-99.99,,,-99.99,,2013-07-11 15:58:00,
2013-07-11 11:05:00,74.0,64.0,-100.00,SSE,155,13.0,17.0,71,-99.99,,,-99.99,,2013-07-11 16:05:00,
2013-07-11 11:11:00,78.0,64.0,-100.00,SSE,160,12.0,14.0,63,-99.99,,,-99.99,,2013-07-11 16:11:00,
2013-07-11 11:49:00,78.0,64.0,-100.00,SSE,160,12.0,14.0,63,-99.99,,,-99.99,,2013-07-11 16:49:00,
2013-07-11 11:56:00,78.0,64.0,-100.00,SSE,160,12.0,14.0,63,-99.99,,,-99.99,,2013-07-11 16:56:00,
2013-07-11 12:02:00,78.0,64.0,-100.00,SSE,160,12.0,14.0,63,-99.99,,,-99.99,,2013-07-11 17:02:00,
2013-07-11 12:10:00,80.0,63.0,-100.00,South,175,14.0,17.0,57,-99.99,,,-99.99,,2013-07-11 17:10:00,
2013-07-11 12:39:00,80.0,63.0,-100.00,South,175,14.0,17.0,57,-99.99,,,-99.99,,2013-07-11 17:39:00,
2013-07-11 12:49:00,80.0,63.0,-100.00,South,175,14.0,17.0,57,-99.99,,,-99.99,,2013-07-11 17:49:00,
2013-07-11 12:55:00,80.0,63.0,-100.00,South,175,14.0,17.0,57,-99.99,,,-99.99,,2013-07-11 17:55:00,
2013-07-11 13:11:00,82.0,66.0,-100.00,SSE,155,13.0,16.0,59,-99.99,,,-99.99,,2013-07-11 18:11:00,
2013-07-11 13:48:00,82.0,66.0,-100.00,SSE,155,13.0,16.0,59,-99.99,,,-99.99,,2013-07-11 18:48:00,
2013-07-11 13:56:00,82.0,66.0,-100.00,SSE,155,13.0,16.0,59,-99.99,,,-99.99,,2013-07-11 18:56:00,
2013-07-11 14:03:00,82.0,66.0,-100.00,SSE,155,13.0,16.0,59,-99.99,,,-99.99,,2013-07-11 19:03:00,
2013-07-11 14:10:00,84.0,68.0,-100.00,SE,145,18.0,22.0,58,-99.99,,,-99.99,,2013-07-11 19:10:00,
2013-07-11 14:39:00,84.0,68.0,-100.00,SE,145,18.0,22.0,58,-99.99,,,-99.99,,2013-07-11 19:39:00,
2013-07-11 14:47:00,84.0,68.0,-100.00,SE,145,18.0,22.0,58,-99.99,,,-99.99,,2013-07-11 19:47:00,
2013-07-11 14:57:00,84.0,68.0,-100.00,SE,145,18.0,22.0,58,-99.99,,,-99.99,,2013-07-11 19:57:00,
2013-07-11 15:04:00,84.0,68.0,-100.00,SE,145,18.0,22.0,58,-99.99,,,-99.99,,2013-07-11 20:04:00,
2013-07-11 15:10:00,85.0,69.0,-100.00,SSE,155,18.0,22.0,58,-99.99,,,-99.99,,2013-07-11 20:10:00,
2013-07-11 15:49:00,85.0,69.0,-100.00,SSE,155,18.0,22.0,58,-99.99,,,-99.99,,2013-07-11 20:49:00,
2013-07-11 15:56:00,85.0,69.0,-100.00,SSE,155,18.0,22.0,58,-99.99,,,-99.99,,2013-07-11 20:56:00,
2013-07-11 16:05:00,85.0,69.0,-100.00,SSE,155,18.0,22.0,58,-99.99,,,-99.99,,2013-07-11 21:05:00,
2013-07-11 16:45:00,86.0,70.0,-100.00,SSE,155,19.0,22.0,58,-99.99,,,-99.99,,2013-07-11 21:45:00,
2013-07-11 16:57:00,86.0,70.0,-100.00,SSE,155,19.0,22.0,58,-99.99,,,-99.99,,2013-07-11 21:57:00,
2013-07-11 17:04:00,86.0,70.0,-100.00,SSE,155,19.0,22.0,58,-99.99,,,-99.99,,2013-07-11 22:04:00,
2013-07-11 17:10:00,86.0,71.0,-100.00,South,175,17.0,21.0,60,-99.99,,,-99.99,,2013-07-11 22:10:00,
2013-07-11 17:49:00,86.0,71.0,-100.00,South,175,17.0,21.0,60,-99.99,,,-99.99,,2013-07-11 22:49:00,
2013-07-11 17:55:00,86.0,71.0,-100.00,South,175,17.0,21.0,60,-99.99,,,-99.99,,2013-07-11 22:55:00,
2013-07-11 18:10:00,85.0,71.0,-100.00,South,175,18.0,21.0,62,-99.99,,,-99.99,,2013-07-11 23:10:00,
2013-07-11 18:47:00,85.0,71.0,-100.00,South,175,18.0,21.0,62,-99.99,,,-99.99,,2013-07-11 23:47:00,
2013-07-11 18:58:00,85.0,71.0,-100.00,South,175,18.0,21.0,62,-99.99,,,-99.99,,2013-07-11 23:58:00,
2013-07-11 19:10:00,85.0,72.0,-100.00,SSE,160,14.0,16.0,65,-99.99,,,-99.99,,2013-07-12 00:10:00,
2013-07-11 19:46:00,85.0,72.0,-100.00,SSE,160,14.0,16.0,65,-99.99,,,-99.99,,2013-07-12 00:46:00,
2013-07-11 19:58:00,85.0,72.0,-100.00,SSE,160,14.0,16.0,65,-99.99,,,-99.99,,2013-07-12 00:58:00,
2013-07-11 20:10:00,84.0,72.0,-100.00,South,170,16.0,19.0,68,-99.99,,,-99.99,,2013-07-12 01:10:00,
2013-07-11 20:48:00,84.0,72.0,-100.00,South,170,16.0,19.0,68,-99.99,,,-99.99,,2013-07-12 01:48:00,
2013-07-11 20:56:00,84.0,72.0,-100.00,South,170,16.0,19.0,68,-99.99,,,-99.99,,2013-07-12 01:56:00,
2013-07-11 21:05:00,84.0,72.0,-100.00,South,170,16.0,19.0,68,-99.99,,,-99.99,,2013-07-12 02:05:00,
2013-07-11 21:11:00,81.0,72.0,-100.00,SSE,155,10.0,12.0,75,-99.99,,,-99.99,,2013-07-12 02:11:00,
2013-07-11 21:55:00,81.0,72.0,-100.00,SSE,155,10.0,12.0,75,-99.99,,,-99.99,,2013-07-12 02:55:00,
2013-07-11 22:02:00,81.0,72.0,-100.00,SSE,155,10.0,12.0,75,-99.99,,,-99.99,,2013-07-12 03:02:00,
2013-07-11 22:11:00,80.0,72.0,-100.00,SSE,150,12.0,16.0,78,-99.99,,,-99.99,,2013-07-12 03:11:00,
2013-07-11 22:46:00,80.0,72.0,-100.00,SSE,150,12.0,16.0,78,-99.99,,,-99.99,,2013-07-12 03:46:00,
2013-07-11 22:56:00,80.0,72.0,-100.00,SSE,150,12.0,16.0,78,-99.99,,,-99.99,,2013-07-12 03:56:00,
2013-07-11 23:01:00,80.0,72.0,-100.00,SSE,150,12.0,16.0,78,-99.99,,,-99.99,,2013-07-12 04:01:00,
2013-07-11 23:43:00,78.0,72.0,-100.00,SSE,150,12.0,14.0,82,-99.99,,,-99.99,,2013-07-12 04:43:00,
2013-07-11 23:53:00,78.0,72.0,-100.00,SSE,150,12.0,14.0,82,-99.99,,,-99.99,,2013-07-12 04:53:00,